This demonstration page uses our WeatherBlox Daily Observations layout. Learn more.

Left ArrowRight Arrow

36.17497, -115.13722

Hourly Observations for October 18, 2021

Temp ( °F °C ) Dew Point ( °F °C ) Humidity (%) Winds ( mph kmh ) Pressure ( in mb ) Visibility ( mi km ) Precip ( " mm )
12:53 am 00:53 Clear 67 19.4 21 -6.1 17 17 VRB 3 6 29.77 1008 10 16 N/A
1:53 am 01:53 Clear 67 19.4 20 -6.7 17 17 SW 7 11 29.75 1008 10 16 N/A
2:53 am 02:53 Clear 64 17.8 21 -6.1 19 19 S 9 15 29.74 1007 10 16 N/A
3:53 am 03:53 Clear 64 17.8 24 -4.4 22 22 S 7 11 29.71 1006 10 16 N/A
4:53 am 04:53 Clear 63 17.2 25 -3.9 24 24 N N/A 29.71 1006 10 16 N/A
5:53 am 05:53 Clear 63 17.2 29 -1.7 28 28 S 16 26 29.69 1005 10 16 N/A
6:53 am 06:53 Sunny 61 16.1 29 -1.7 30 30 SSE 14 22 29.71 1006 10 16 N/A
7:53 am 07:53 Sunny 61 16.1 32 undefined 34 34 S 14 22 29.73 1007 10 16 N/A
8:53 am 08:53 Sunny 62 16.7 37 2.8 40 40 SSW 24 39 29.76 1008 10 16 N/A
9:53 am 09:53 Cloudy 62 16.7 37 2.8 40 40 S 8 13 29.76 1008 10 16 N/A
10:53 am 10:53 Mostly Cloudy 63 17.2 36 2.2 37 37 SW 17 28 29.76 1008 10 16 N/A
11:53 am 11:53 Mostly Cloudy 65 18.3 36 2.2 34 34 SSW 24 39 29.76 1008 10 16 N/A
12:53 pm 12:53 Mostly Sunny 66 18.9 37 2.8 34 34 SW 18 30 29.75 1008 10 16 N/A
1:13 pm 13:13 Mostly Cloudy 62 16.7 34 1.1 35 35 NW 24 39 29.72 1006 10 16 N/A
1:53 pm 13:53 Partly Cloudy 61 16.1 34 1.1 36 36 NW 29 46 29.79 1009 10 16 N/A
2:53 pm 14:53 Cloudy 60 15.6 35 1.7 39 39 NNW 20 31 29.80 1009 10 16 N/A
3:53 pm 15:53 Sunny 64 17.8 37 2.8 37 37 NNW 18 30 29.81 1010 10 16 N/A
4:53 pm 16:53 Sunny 63 17.2 30 -1.1 29 29 NNW 16 26 29.82 1010 10 16 N/A
5:53 pm 17:53 Sunny 63 17.2 29 -1.7 28 28 NNW 12 19 29.83 1010 10 16 N/A
6:53 pm 18:53 Clear 61 16.1 25 -3.9 25 25 NW 7 11 29.85 1011 10 16 N/A
7:53 pm 19:53 Clear 60 15.6 27 -2.8 28 28 WNW 8 13 29.88 1012 10 16 N/A
8:53 pm 20:53 Clear 59 15 35 1.7 41 41 W 8 13 29.90 1012 10 16 N/A
9:53 pm 21:53 Clear 57 13.9 33 0.6 41 41 N N/A 29.93 1013 10 16 N/A
10:53 pm 22:53 Clear 57 13.9 23 -5 27 27 NW 12 19 29.93 1014 10 16 N/A
11:53 pm 23:53 Clear 59 15 21 -6.1 23 23 NW 17 28 29.92 1013 10 16 N/A

Powered by AerisWeather